User: anonymous   Login
Location: Prairie State College
(41.5244°N, 87.6382°W)
Time: 12:24:05
(UTC-05:00)
Language:

Cosmos 1943 - Orbit

View from above orbital plane
View from above orbital plane
View from above satellite
View from above satellite

Ground track
Ground track

The orbit data is extracted from the following two-line orbital elements,

1 19119U 88039A   16269.22843001 -.00000161  00000-0 -58698-4 0  9993
2 19119  71.0021 298.1911 0009178 103.3681 323.5325 14.15071192464617
Epoch (UTC): 25 September 2016 05:28:56
Eccentricity: 0.0009178
inclination: 71.0021°
perigee height: 835 km
apogee height: 848 km
right ascension of ascending node: 298.1911°
argument of perigee: 103.3681°
revolutions per day: 14.15071192
mean anomaly at epoch: 323.5325°
orbit number at epoch: 46461

The dashed part of the orbit path shows where the satellite is in the earth's shadow,  

DLR